Location: La Pernelle
(49.6188°N, 1.2999°W)
Time: 16:41:32
(UTC+00:00)

Cosmos 2058 Rocket - Pass Details

Date: 12 June 2021
Orbit: 609 x 640 km, 82.5° (Epoch: 31 July)

Event Time Altitude Azimuth Distance (km) Brightness Sun altitude
Rises 23:38:06 0° 352° (N) 2,946 8.4 -16.9°
Reaches altitude 10° 23:40:23 10° 356° (N) 2,029 7.0 -17.0°
Maximum altitude 23:44:51 63° 78° (ENE) 704 3.3 -17.0°
Enters shadow 23:46:55 30° 149° (SSE) 1,125 3.9 -17.1°
